Location: Erdweis
(48.5167°N, 15.3500°E)
Time: 17:22:55
(UTC+00:00)

Nadezhda 4 Rocket - Pass Details

Date: 18 September 2020
Orbit: 949 x 992 km, 82.9° (Epoch: 29 October)

Event Time Altitude Azimuth Distance (km) Brightness Sun altitude
Rises 18:50:24 0° 350° (N) 3,641 7.5 -17.9°
Reaches altitude 10° 18:52:54 10° 350° (N) 2,688 6.8 -18.2°
Maximum altitude 18:59:03 88° 266° (W) 958 3.9 -19.2°
Enters shadow 19:04:42 12° 174° (S) 2,495 5.8 -20.0°
